Location: *
(40.4000°N, 15.1200°E)
Time: 22:11:29
(UTC+00:00)

Hubble Space Telescope - Pass Details

Date: 09 April 2020
Orbit: 536 x 540 km, 28.5° (Epoch: 23 May)

Event Time Altitude Azimuth Distance (km) Brightness Sun altitude
Rises 18:55:09 0° 237° (WSW) 2,665 4.8 -15.7°
Reaches altitude 10° 18:58:10 10° 214° (SW) 1,775 3.5 -16.2°
Maximum altitude 19:00:35 15° 177° (S) 1,470 2.7 -16.6°
Enters shadow 19:00:44 15° 175° (S) 1,472 2.7 -16.7°
